Tracking 17996 objects as of 28-February-2017
HD Live streaming from Space Station
objects crossing your sky now

COSMOS 2251 DEB

Track COSMOS 2251 DEB now!
10-day predictions


NORAD ID: 33899
Int'l Code: 1993-036DC
Perigee: 691.9 km
Apogee: 801.9 km
Inclination: 74.1 °
Period: 99.6 minutes
Semi major axis: 7117 km
RCS: 0.032 m2 (small)
Launch date: June 16, 1993
Source: Commonwealth of Independent States (former USSR) (CIS)
Launch site: PLESETSK MISSILE AND SPACE COMPLEX (PKMTR)

Note: This is SATELLITE DEBRIS
Your satellite tracking list
Your tracking list is empty





NASA's NSSDC Master Catalog

Two Line Element Set (TLE):
1 33899U 93036DC  17057.89979023  .00000453  00000-0  13105-3 0  9995
2 33899  74.0601 339.9904 0077297 141.8953 287.4848 14.45697770423338
Source of the keplerian elements: AFSPC